{"data":{"norad_id":67685,"epoch":"2026-05-24T23:23:45.585888Z","epoch_age_seconds":71033,"freshness":"FRESH","line1":"1 67685U 98067YB  26144.97483317  .00048472  00000+0  61449-3 0  9992","line2":"2 67685  51.6289  50.5589 0013488 113.7790 246.4618 15.58858192 16661","mean_motion":15.58858192,"eccentricity":0.0013488,"inclination_deg":51.6289,"raan_deg":50.5589,"arg_perigee_deg":113.779,"mean_anomaly_deg":246.4618,"bstar":0.00061449,"rev_number":1666,"period_min":92.375304398439,"perigee_km":381.83032071883,"apogee_km":400.09063807925,"semimajor_km":6769.097479399,"source":"CELESTRAK","updated_at":"2026-05-25T13:38:08.449808Z"}}